Station 42035 (LLNR 1200) - GALVESTON,TX - 22 NM East of Galveston, TX Image indicating link to RSS feed of recent meteorological observations for station 42035


Conditions at 42035 as of
(8:10 pm CDT on 05/17/2024)
0110 GMT on 05/18/2024:
     

Click on the graph icon in the table below to see a time series plot of the last five days of that observation.

5-day plot - Wind Direction Wind Direction (WDIR):ENE ( 70 deg true )
5-day plot - Wind Speed Wind Speed (WSPD): 11.7 kts
5-day plot - Wind Gust Wind Gust (GST): 15.5 kts
5-day plot - Atmospheric Pressure Atmospheric Pressure (PRES):29.75 in
5-day plot - Water Temperature Water Temperature (WTMP): 78.3 °F
5-day plot - Wind Speed at 10 Meters Wind Speed at 10 meters (WSPD10M): 13.6 kts
5-day plot - Wind Speed at 20 Meters Wind Speed at 20 meters (WSPD20M): 13.6 kts
5-day plot -  Wind Speed, Wind Gust and Atmospheric Pressure Combined plot of Wind Speed, Gust, and Air Pressure
Supplemental Measurements
Lowest 1-minute Pressure
Time (CDT)Pressure
8:10 pm29.75 in
Highest 1-minute Wind Speed
Time (CDT)5-day plot - 1-Minute Wind Speed WSPD 5-day plot - 1-Minute Wind Direction WDIR
8:08 pm 15.5 kts E ( 90 deg true )
Previous observations
TIME
(CDT)
5-day plot - Wind Direction
WDIR
 
5-day plot - Wind Speed
WSPD
kts
5-day plot - Wind Gust
GST
kts
5-day plot - Wave Height
WVHT
ft
5-day plot - Dominant Wave Period
DPD
sec
5-day plot - Average Wave Period
APD
sec
5-day plot - Mean Wave Direction
MWD
 
5-day plot - Atmospheric Pressure
PRES
in
5-day plot - Pressure Tendency
PTDY
in
5-day plot - Air Temperature
ATMP
°F
5-day plot - Water Temperature
WTMP
°F
5-day plot - Dew Point
DEWP
°F
5-day plot - Salinity
SAL
psu
5-day plot - Visibility
VIS
nmi
5-day plot - Tide (above MLLW)
TIDE
ft
2024-05-17 08:00 pm NE 7.8 17.5----29.80+0.04- 78.3----
2024-05-17 07:50 pmNNE 13.6 19.4 2.6 64.4 SE29.73-- 78.3----
2024-05-17 07:40 pmNNE 13.6 19.4----29.72-- 78.3----
2024-05-17 07:30 pmENE 13.6 15.5----29.72-- 78.3----
2024-05-17 07:20 pmENE 11.7 13.6 2.6 64.2ESE29.72-- 78.3----
2024-05-17 07:10 pmENE 11.7 13.6 2.6-4.2ESE29.74-- 78.3----
2024-05-17 07:00 pm E 11.7 15.5----29.72-0.03- 78.3----
2024-05-17 06:50 pmENE 9.7 11.7 3.0 64.5 SE29.74-- 78.3----
2024-05-17 06:40 pm NE 9.7 11.7----29.75-- 78.3----
2024-05-17 06:30 pm NE 9.7 11.7----29.75-- 78.3----
2024-05-17 06:20 pmENE 11.7 11.7 2.6 64.3 SE29.73-- 78.3----
2024-05-17 06:10 pm E 9.7 11.7 2.6-4.3 SE29.73-- 78.3----
2024-05-17 06:00 pm E 9.7 11.7----29.74+0.00- 78.3----
2024-05-17 05:50 pmENE 7.8 9.7 2.6 64.2 SE29.75-- 78.3----
2024-05-17 05:40 pmENE 7.8 9.7----29.74-- 78.3----
2024-05-17 05:30 pm NE 5.8 7.8----29.75-- 78.3----
2024-05-17 05:20 pm N 3.9 5.8 2.6 64.1 SE29.77-- 78.3----
2024-05-17 05:10 pmNNE 3.9 5.8 2.6-4.1 SE29.77-- 78.3----
2024-05-17 05:00 pm NE 5.8 5.8----29.76+0.02- 78.3----
2024-05-17 04:50 pmENE 5.8 7.8 2.6 64.0 SE29.75-- 78.3----
2024-05-17 04:40 pm E 5.8 7.8----29.75-- 78.3----
2024-05-17 04:30 pm E 7.8 7.8----29.75-- 78.3----
2024-05-17 04:20 pmENE 5.8 5.8 2.6 64.2 SE29.75-- 78.1----
2024-05-17 04:10 pmENE 5.8 5.8 2.6-4.2 SE29.77-- 78.1----
2024-05-17 04:00 pmENE 5.8 9.7----29.75+0.02- 78.1----
2024-05-17 03:50 pmNNE 11.7 13.6 2.6 64.2 SE29.73-- 78.1----
2024-05-17 03:40 pmNNE 9.7 11.7----29.73-- 78.1----
2024-05-17 03:30 pmNNE 7.8 11.7----29.75-- 78.1----
2024-05-17 03:20 pmNNE 9.7 15.5 2.6 64.3 SE29.77-- 78.1----
2024-05-17 03:10 pmNNE 13.6 17.5 2.6-4.3 SE29.73-- 78.1----
2024-05-17 03:00 pm N 13.6 15.5----29.74-0.05- 78.1----
2024-05-17 02:50 pm N 9.7 13.6 2.6 64.1 SE29.75-- 78.1----
2024-05-17 02:40 pm N 3.9 9.7----29.80-- 78.1----
2024-05-17 02:30 pm E 3.9 5.8----29.80-- 78.1----
2024-05-17 02:20 pmENE 5.8 7.8 2.6 63.9 SE29.78-- 78.1----
2024-05-17 02:10 pmNNE 9.7 11.7 2.6-3.9 SE29.77-- 78.1----
2024-05-17 02:00 pmNNE 13.6 17.5----29.74-0.03- 78.1----
2024-05-17 01:50 pmNNE 13.6 17.5 2.6 64.1 SE29.72-- 78.1----
2024-05-17 01:40 pmNNE 13.6 17.5 2.6-4.1 SE29.72-- 78.1----
2024-05-17 01:30 pm N 11.7 13.6----29.74-- 78.3----
2024-05-17 01:20 pm N 11.7 13.6 2.6 64.2 SE29.76-- 78.3----
2024-05-17 01:10 pm N 13.6 17.5 2.6-4.2 SE29.74-- 78.3----
2024-05-17 01:00 pm N 15.5 17.5----29.74+0.00- 78.3----
2024-05-17 12:50 pmNNE 11.7 13.6 2.6 64.3 SE29.73-- 78.3----
2024-05-17 12:40 pmNNE 9.7 9.7----29.75-- 78.3----
2024-05-17 12:30 pmNNE 7.8 9.7----29.76-- 78.3----
2024-05-17 12:20 pm N 7.8 9.7 2.6 64.2 SE29.78-- 78.3----
2024-05-17 12:10 pm N 9.7 11.7 2.6-4.2 SE29.78-- 78.3----
2024-05-17 12:00 pm N 9.7 9.7----29.78+0.00- 78.3----
2024-05-17 11:50 amNNE 7.8 7.8 2.6 64.2SSE29.78-- 78.3----
2024-05-17 11:40 am NE 5.8 7.8 2.6-4.2SSE29.78-- 78.3----
2024-05-17 11:30 am NE 7.8 9.7----29.78-- 78.3----
2024-05-17 11:20 am NE 7.8 9.7 2.6 64.1 SE29.78-- 78.3----
2024-05-17 11:10 am NE 9.7 9.7 2.6-4.1 SE29.78-- 78.3----
2024-05-17 11:00 am NE 9.7 11.7----29.77+0.05- 78.3----
2024-05-17 10:50 am NE 9.7 13.6 2.6 64.0 SE29.76-- 78.3----
2024-05-17 10:40 am NE 11.7 13.6----29.74-- 78.3----
2024-05-17 10:30 amENE 11.7 13.6----29.73-- 78.3----
2024-05-17 10:20 amENE 11.7 15.5 2.6 64.0SSE29.73-- 78.3----
2024-05-17 10:10 am NE 11.7 13.6 2.6-4.0SSE29.74-- 78.3----
2024-05-17 10:00 am NE 13.6 15.5----29.73+0.04- 78.3----
2024-05-17 09:50 am NE 13.6 15.5 3.0 64.1 SE29.73-- 78.1----
2024-05-17 09:40 am NE 11.7 13.6 3.0-4.1 SE29.74-- 78.3----
2024-05-17 09:30 amNNE 11.7 13.6----29.76-- 78.3----
2024-05-17 09:20 am N 11.7 11.7 3.0 64.1 SE29.77-- 78.3----
2024-05-17 09:10 am N 11.7 13.6 3.0-4.1 SE29.78-- 78.3----
2024-05-17 09:00 am N 11.7 11.7----29.78+0.10- 78.3----
2024-05-17 08:50 amNNE 11.7 13.6 3.0 63.9 SE29.77-- 78.1----
2024-05-17 08:40 amNNE 11.7 13.6 3.0-3.9 SE29.75-- 78.1----
2024-05-17 08:30 amNNE 13.6 15.5----29.74-- 78.1----
2024-05-17 08:20 amNNE 13.6 15.5 3.3 64.0SSE29.74-- 78.1----
2024-05-17 08:10 amNNE 13.6 15.5 3.3-4.0SSE29.72-- 78.1----
2024-05-17 08:00 amNNE 13.6 15.5----29.72+0.04- 78.3----
2024-05-17 07:50 amNNE 13.6 15.5 3.3 64.0 SE29.72-- 78.3----
2024-05-17 07:40 amNNE 13.6 15.5 3.3-4.0 SE29.72-- 78.3----
2024-05-17 07:30 amNNE 13.6 15.5----29.71-- 78.3----
2024-05-17 07:20 amNNE 13.6 17.5 3.6 64.0 SE29.71-- 78.3----
2024-05-17 07:10 am N 13.6 15.5 3.6-4.0 SE29.70-- 78.3----
2024-05-17 07:00 am N 15.5 17.5----29.70+0.07- 78.4----
2024-05-17 06:50 am N 13.6 17.5 3.3 64.0SSE29.70-- 78.4----
2024-05-17 06:40 am N 15.5 17.5----29.68-- 78.4----
2024-05-17 06:30 am N 13.6 17.5----29.69-- 78.4----
2024-05-17 06:20 am N 15.5 19.4 3.0 63.8 SE29.69-- 78.6----
2024-05-17 06:10 am N 15.5 17.5 3.0-3.8 SE29.68-- 78.6----
2024-05-17 06:00 am N 15.5 19.4----29.68+0.03- 78.6----
2024-05-17 05:50 am N 17.5 19.4 3.3 64.0 SE29.68-- 78.8----
2024-05-17 05:40 am N 17.5 19.4 3.3-4.0 SE29.68-- 78.8----
2024-05-17 05:30 am N 17.5 21.4----29.68-- 79.0----
2024-05-17 05:20 amNNW 17.5 19.4 3.3 64.7SSE29.68-- 79.0----
2024-05-17 05:10 amNNW 19.4 23.3 3.3-4.7SSE29.69-- 79.0----
2024-05-17 05:00 amNNW 17.5 21.4----29.68+0.03- 79.2----
2024-05-17 04:50 am NW 9.7 13.6 3.0 64.6SSE29.68-- 79.2----
2024-05-17 04:40 amWNW 7.8 7.8----29.67-- 79.2----
2024-05-17 04:30 am W 1.9 5.8----29.67-- 79.2----
2024-05-17 04:20 am SE 1.9 3.9 3.3 64.6SSE29.65-- 79.2----
2024-05-17 04:10 amESE 3.9 5.8 3.3-4.6SSE29.64-- 79.2----
2024-05-17 04:00 amESE 3.9 5.8----29.63-0.04- 79.0----
2024-05-17 03:50 amESE 5.8 7.8 3.9 64.8SSE29.62-------
2024-05-17 03:40 amESE 5.8 7.8 3.9-4.8SSE29.63-- 79.2----
2024-05-17 03:30 am SE 5.8 7.8----29.63-- 79.5----
2024-05-17 03:20 am SE 5.8 7.8 3.9 64.8SSE29.63-- 79.5----
2024-05-17 03:10 am SE 5.8 7.8 3.9-4.8SSE29.64-- 79.5----
2024-05-17 03:00 am SE 5.8 9.7----29.65-0.03- 79.5----
2024-05-17 02:50 amESE 5.8 7.8 3.9 64.6SSE29.64-- 79.7----
2024-05-17 02:40 amESE 5.8 5.8----29.65-- 79.5----
2024-05-17 02:30 am E 3.9 5.8----29.64-- 79.9----
2024-05-17 02:20 am E 5.8 7.8 3.6 64.5SSE29.65-- 79.9----
2024-05-17 02:10 am E 5.8 5.8 3.6-4.5SSE29.65-- 79.9----
2024-05-17 02:00 am E 3.9 5.8----29.66-0.01- 79.7----
2024-05-17 01:50 am E 5.8 5.8 3.3 64.8SSE29.66-- 79.9----
2024-05-17 01:40 am E 5.8 7.8----29.67-- 79.9----
2024-05-17 01:30 amENE 5.8 5.8----29.67-- 79.9----
2024-05-17 01:20 am NE 5.8 7.8 3.3 64.9SSE29.67-- 79.7----
2024-05-17 01:10 amENE 5.8 7.8 3.3-4.9SSE29.67-- 79.7----
2024-05-17 01:00 am NE 5.8 7.8----29.67+0.02- 79.7----
2024-05-17 12:50 amNNE 5.8 5.8 3.6 64.8SSE29.67-- 79.7----
2024-05-17 12:40 amNNE 3.9 5.8----29.68-- 79.7----
2024-05-17 12:30 amNNE 3.9 5.8----29.69-- 79.7----
2024-05-17 12:20 am NE 3.9 5.8 3.6 64.8SSE29.68-- 79.7----
2024-05-17 12:10 am N 5.8 7.8 3.6-4.8SSE29.69-- 79.5----
2024-05-17 12:00 am N 5.8 5.8----29.68+0.02- 79.5----
2024-05-16 11:50 pm E 3.9 5.8 3.9 64.9SSE29.68-- 79.5----
2024-05-16 11:40 pmENE 3.9 5.8 3.9-4.9SSE29.67-- 79.3----
2024-05-16 11:30 pm E 5.8 9.7----29.67-- 79.3----
2024-05-16 11:20 pm E 7.8 11.7 3.9 64.8SSE29.66-- 79.3----
2024-05-16 11:10 pm E 1.9 5.8 3.9-4.8SSE29.68-- 79.3----
2024-05-16 11:00 pmENE 5.8 7.8----29.67+0.08- 79.3----
2024-05-16 10:50 pm N 3.9 5.8 3.6 74.7SSE29.67-- 79.3----
2024-05-16 10:40 pm NW 3.9 11.7----29.67-- 79.0----
2024-05-16 10:30 pm NW 5.8 9.7----29.69-- 79.0----
2024-05-16 10:20 pmNNW 5.8 7.8 3.9 64.7SSE29.66-- 79.2----
2024-05-16 10:10 pm NW 3.9 7.8 3.9-4.7SSE29.65-- 79.2----
2024-05-16 10:00 pmNNW 5.8 7.8----29.65+0.06- 78.3----
2024-05-16 09:50 pmNNW 5.8 9.7 3.6 64.4SSE29.64-- 78.3----
2024-05-16 09:40 pm NW 7.8 9.7 3.6-4.4SSE29.65-- 78.1----
2024-05-16 09:30 pm NW 7.8 11.7----29.64-- 78.1----
2024-05-16 09:20 pmWNW 9.7 13.6 4.3 54.5SSE29.65-- 78.1----
2024-05-16 09:10 pmWNW 11.7 15.5 4.3-4.5SSE29.65-- 78.1----
2024-05-16 09:00 pmWNW 13.6 19.4----29.66+0.11- 78.1----
2024-05-16 08:50 pmWNW 15.5 21.4 3.9 64.6SSE29.66-- 78.1----
2024-05-16 08:40 pmWNW 19.4 27.2----29.64-- 78.1----
2024-05-16 08:30 pmSSW 13.6 17.5----29.62-- 78.1----
2024-05-16 08:20 pm S 15.5 17.5 4.6 64.6 SE29.58-- 78.3----
2024-05-16 08:10 pm S 13.6 17.5 4.6-4.6 SE29.58-- 78.1----
2024-05-16 08:00 pm S 11.7 13.6----29.59+0.04- 78.1----
2024-05-16 07:50 pm S 9.7 13.6 4.6 54.7SSE29.59-- 78.3----

Detailed Wave Summary
for 42035 as of
(7:40 pm CDT on 05/17/2024)
0040 GMT on 05/18/2024:

These wave data are displayed in rounded times.

     

Click on the graph icon in the table below to see a time series plot of the last five days of that observation.

5-day plot - Significant Wave Height Significant Wave Height (WVHT): 2.6 ft
5-day plot - Swell Height Swell Height (SwH): 1.0 ft
5-day plot - Swell Period Swell Period (SwP): 7.7 sec
5-day plot - Swell Direction Swell Direction (SwD): SE
5-day plot - Wind Wave Height Wind Wave Height (WWH): 2.3 ft
5-day plot - Wind Wave Period Wind Wave Period (WWP): 6.2 sec
5-day plot - Wind Wave Direction Wind Wave Direction (WWD): SE
5-day plot - Average Wave Period Average Wave Period (APD): 4.4 sec
Previous observations
TIME
(CDT)
5-day plot - Wave Height
WVHT
ft
5-day plot - Swell Height
SwH
ft
5-day plot - Swell Period
SwP
sec
5-day plot - Swell Direction
SwD
 
5-day plot - Wind Wave Height
WWH
ft
5-day plot - Wind Wave Period
WWP
sec
5-day plot - Wind Wave Direction
WWD
 
5-day plot - Wave Steepness
STEEPNESS
 
5-day plot - Average Wave Period
APD
sec
2024-05-17 07:10 pm 2.6 1.6 5.9ESE 2.0 5.3 SE N/A 4.2
2024-05-17 06:40 pm 3.0 2.3 5.9 SE 1.6 3.3 ENE STEEP 4.5
2024-05-17 06:10 pm 2.6 2.0 5.6 SE 1.6 3.4 ENE STEEP 4.3
2024-05-17 05:40 pm 2.6 2.3 5.9 SE 1.3 3.3 ENE N/A 4.2
2024-05-17 05:10 pm 2.6 2.0 5.9 SE 1.6 3.4 ENE N/A 4.1
2024-05-17 04:40 pm 2.6 2.0 5.9 SE 1.6 3.0 NNE N/A 4.0
2024-05-17 04:10 pm 2.6 2.0 5.9 SE 1.3 2.9 NE N/A 4.2
2024-05-17 03:40 pm 2.6 2.3 5.9 SE 1.3 3.4 E STEEP 4.2
2024-05-17 03:10 pm 2.6 0.0-- 2.6 5.9 SE N/A 4.3
2024-05-17 02:40 pm 2.6 2.0 5.9 SE 1.3 3.8 ESE N/A 4.1
2024-05-17 02:10 pm 2.6 2.0 5.9 SE 1.6 4.5 ESE N/A 3.9
2024-05-17 01:40 pm 2.6 0.0-- 2.6 5.6 SE N/A 4.1
2024-05-17 01:10 pm 2.6 0.0-- 2.6 5.9 SE N/A 4.2
2024-05-17 12:40 pm 2.6 2.3 5.9 SE 1.3 4.0 SE STEEP 4.3
2024-05-17 12:10 pm 2.6 2.0 5.9 SE 2.0 4.3 SSE STEEP 4.2
2024-05-17 11:40 am 2.6 2.3 5.6SSE 1.6 3.1 NE STEEP 4.2
2024-05-17 11:10 am 2.6 2.0 5.9 SE 1.6 3.8 E STEEP 4.1
2024-05-17 10:40 am 2.6 1.3 6.2 SE 2.3 5.6 SE STEEP 4.0
2024-05-17 10:10 am 2.6 0.0-- 2.6 5.9 SSE STEEP 4.0
2024-05-17 09:40 am 3.0 1.6 5.9 SE 2.3 4.8 SE STEEP 4.1
2024-05-17 09:10 am 3.0 1.6 5.6 SE 2.3 4.3 SSE STEEP 4.1
2024-05-17 08:40 am 3.0 1.0 11.4ENE 3.0 5.6 SE STEEP 3.9
2024-05-17 08:10 am 3.3 0.0-- 3.3 5.6 SSE STEEP 4.0
2024-05-17 07:40 am 3.3 1.0 6.7 SE 3.0 5.9 SE STEEP 4.0
2024-05-17 07:10 am 3.6 0.0-- 3.6 5.9 SE STEEP 4.0
2024-05-17 06:40 am 3.3 0.0-- 3.3 5.9 SSE STEEP 4.0
2024-05-17 06:10 am 3.0 1.6 5.9 SE 2.6 4.8 SSE STEEP 3.8
2024-05-17 05:40 am 3.3 2.0 5.9 SE 2.6 4.8 SSE STEEP 4.0
2024-05-17 05:10 am 3.3 0.0-- 3.3 6.2 SSE STEEP 4.7
2024-05-17 04:40 am 3.0 2.6 6.2SSE 1.3 3.6 SSE STEEP 4.6
2024-05-17 04:10 am 3.3 3.0 5.6SSE 1.6 3.8 S STEEP 4.6
2024-05-17 03:40 am 3.9 3.6 5.9SSE 1.6 3.4 E STEEP 4.8
2024-05-17 03:10 am 3.9 3.6 5.6SSE 1.6 4.0 SSE STEEP 4.8
2024-05-17 02:40 am 3.9 3.3 6.2SSE 2.0 3.7 NNE STEEP 4.6
2024-05-17 02:10 am 3.6 3.3 6.2SSE 1.6 3.8 SSE STEEP 4.5
2024-05-17 01:40 am 3.3 3.0 5.6SSE 1.3 3.6 SSE STEEP 4.8
2024-05-17 01:10 am 3.3 3.3 6.2SSE 1.3 4.0 SSE STEEP 4.9
2024-05-17 12:40 am 3.6 3.3 6.2SSE 1.3 4.0 SSE STEEP 4.8
2024-05-17 12:10 am 3.6 3.3 5.9SSE 1.3 3.7 SSE STEEP 4.8
2024-05-16 11:40 pm 3.9 3.6 6.2SSE 1.3 3.6 SSE STEEP 4.9
2024-05-16 11:10 pm 3.9 3.6 6.2SSE 1.6 3.8 SSE STEEP 4.8
2024-05-16 10:40 pm 3.6 3.3 6.7SSE 1.6 3.7 SSE STEEP 4.7
2024-05-16 10:10 pm 3.9 3.6 5.9SSE 1.6 3.8 SSE STEEP 4.7
2024-05-16 09:40 pm 3.6 3.3 6.2SSE 1.6 4.0 SSE STEEP 4.4
2024-05-16 09:10 pm 4.3 2.6 6.2SSE 3.3 5.3 SSEVERY_STEEP 4.5
2024-05-16 08:40 pm 3.9 0.0-- 3.9 6.2 SSE STEEP 4.6
2024-05-16 08:10 pm 4.6 1.6 14.8ENE 4.3 6.2 SE STEEP 4.6

Plot of wave energy versus frequency (and period)